Location: Cartignies
(50.0929°N, 3.8447°E)
Time: 14:40:56
(UTC+00:00)

Cosmos 1339 Rocket - Pass Details

Date: 12 January 2026
Orbit: 941 x 1006 km, 82.9° (Epoch: 16 February)

Event Time Altitude Azimuth Distance (km) Brightness Sun altitude
Rises 19:16:32 0° 191° (S) 3,663 7.6 -29.6°
Reaches altitude 10° 19:19:04 10° 193° (SSW) 2,710 6.9 -30.0°
Enters shadow 19:25:12 79° 271° (W) 983 4.4 -31.0°
